Year,Month,Day,Hour,Minute,Value (Times are PST for temperature in C)
2015,07,04,00,00,14.20
2015,07,04,00,01,14.20
2015,07,04,00,02,14.20
2015,07,04,00,03,14.10
2015,07,04,00,04,14.10
2015,07,04,00,05,14.10
2015,07,04,00,06,14.10
2015,07,04,00,07,14.00
2015,07,04,00,08,14.00
2015,07,04,00,09,14.00
2015,07,04,00,10,14.00
2015,07,04,00,11,14.00
2015,07,04,00,12,14.10
2015,07,04,00,13,14.10
2015,07,04,00,14,14.00
2015,07,04,00,15,14.10
2015,07,04,00,16,14.10
2015,07,04,00,17,14.10
2015,07,04,00,18,14.10
2015,07,04,00,19,14.10
2015,07,04,00,20,14.10
2015,07,04,00,21,14.10
2015,07,04,00,22,14.10
2015,07,04,00,23,14.10
2015,07,04,00,24,14.10
2015,07,04,00,25,14.10
2015,07,04,00,26,14.20
2015,07,04,00,27,14.20
2015,07,04,00,28,14.20
2015,07,04,00,29,14.20
2015,07,04,00,30,14.20
2015,07,04,00,31,14.20
2015,07,04,00,32,14.20
2015,07,04,00,33,14.20
2015,07,04,00,34,14.20
2015,07,04,00,35,14.20
2015,07,04,00,36,14.20
2015,07,04,00,37,14.20
2015,07,04,00,38,14.20
2015,07,04,00,39,14.20
2015,07,04,00,40,14.10
2015,07,04,00,41,14.10
2015,07,04,00,42,14.10
2015,07,04,00,43,14.00
2015,07,04,00,44,14.00
2015,07,04,00,45,13.90
2015,07,04,00,46,13.90
2015,07,04,00,47,13.90
2015,07,04,00,48,13.90
2015,07,04,00,49,13.90
2015,07,04,00,50,13.90
2015,07,04,00,51,13.90
2015,07,04,00,52,13.90
2015,07,04,00,53,13.90
2015,07,04,00,54,13.90
2015,07,04,00,55,13.90
2015,07,04,00,56,13.80
2015,07,04,00,57,13.80
2015,07,04,00,58,13.80
2015,07,04,00,59,13.80
2015,07,04,01,00,13.80
2015,07,04,01,01,13.70
2015,07,04,01,02,13.70
2015,07,04,01,03,13.70
2015,07,04,01,04,13.70
2015,07,04,01,05,13.70
2015,07,04,01,06,13.70
2015,07,04,01,07,13.70
2015,07,04,01,08,13.70
2015,07,04,01,09,13.70
2015,07,04,01,10,13.70
2015,07,04,01,11,13.70
2015,07,04,01,12,13.70
2015,07,04,01,13,13.70
2015,07,04,01,14,13.70
2015,07,04,01,15,13.70
2015,07,04,01,16,13.70
2015,07,04,01,17,13.70
2015,07,04,01,18,13.70
2015,07,04,01,19,13.70
2015,07,04,01,20,13.70
2015,07,04,01,21,13.70
2015,07,04,01,22,13.70
2015,07,04,01,23,13.70
2015,07,04,01,24,13.70
2015,07,04,01,25,13.70
2015,07,04,01,26,13.70
2015,07,04,01,27,13.70
2015,07,04,01,28,13.70
2015,07,04,01,29,13.70
2015,07,04,01,30,13.70
2015,07,04,01,31,13.70
2015,07,04,01,32,13.70
2015,07,04,01,33,13.70
2015,07,04,01,34,13.70
2015,07,04,01,35,13.70
2015,07,04,01,36,13.70
2015,07,04,01,37,13.70
2015,07,04,01,38,13.70
2015,07,04,01,39,13.70
2015,07,04,01,40,13.70
2015,07,04,01,41,13.70
2015,07,04,01,42,13.70
2015,07,04,01,43,13.70
2015,07,04,01,44,13.60
2015,07,04,01,45,13.60
2015,07,04,01,46,13.60
2015,07,04,01,47,13.60
2015,07,04,01,48,13.60
2015,07,04,01,49,13.50
2015,07,04,01,50,13.50
2015,07,04,01,51,13.50
2015,07,04,01,52,13.50
2015,07,04,01,53,13.50
2015,07,04,01,54,13.40
2015,07,04,01,55,13.40
2015,07,04,01,56,13.40
2015,07,04,01,57,13.40
2015,07,04,01,58,13.40
2015,07,04,01,59,13.40
2015,07,04,02,00,13.40
2015,07,04,02,01,13.40
2015,07,04,02,02,13.40
2015,07,04,02,03,13.40
2015,07,04,02,04,13.40
2015,07,04,02,05,13.40
2015,07,04,02,06,13.40
2015,07,04,02,07,13.40
2015,07,04,02,08,13.40
2015,07,04,02,09,13.50
2015,07,04,02,10,13.50
2015,07,04,02,11,13.50
2015,07,04,02,12,13.40
2015,07,04,02,13,13.40
2015,07,04,02,14,13.40
2015,07,04,02,15,13.40
2015,07,04,02,16,13.40
2015,07,04,02,17,13.50
2015,07,04,02,18,13.50
2015,07,04,02,19,13.50
2015,07,04,02,20,13.50
2015,07,04,02,21,13.50
2015,07,04,02,22,13.50
2015,07,04,02,23,13.60
2015,07,04,02,24,13.60
2015,07,04,02,25,13.60
2015,07,04,02,26,13.60
2015,07,04,02,27,13.60
2015,07,04,02,28,13.60
2015,07,04,02,29,13.60
2015,07,04,02,30,13.60
2015,07,04,02,31,13.60
2015,07,04,02,32,13.60
2015,07,04,02,33,13.60
2015,07,04,02,34,13.60
2015,07,04,02,35,13.60
2015,07,04,02,36,13.60
2015,07,04,02,37,13.60
2015,07,04,02,38,13.60
2015,07,04,02,39,13.60
2015,07,04,02,40,13.60
2015,07,04,02,41,13.60
2015,07,04,02,42,13.60
2015,07,04,02,43,13.60
2015,07,04,02,44,13.60
2015,07,04,02,45,13.60
2015,07,04,02,46,13.60
2015,07,04,02,47,13.70
2015,07,04,02,48,13.70
2015,07,04,02,49,13.80
2015,07,04,02,50,13.80
2015,07,04,02,51,13.90
2015,07,04,02,52,13.90
2015,07,04,02,53,14.00
2015,07,04,02,54,14.00
2015,07,04,02,55,14.00
2015,07,04,02,56,14.00
2015,07,04,02,57,14.00
2015,07,04,02,58,14.00
2015,07,04,02,59,14.00
2015,07,04,03,00,14.00
2015,07,04,03,01,14.00
2015,07,04,03,02,14.00
2015,07,04,03,03,14.00
2015,07,04,03,04,14.10
2015,07,04,03,05,14.10
2015,07,04,03,06,14.10
2015,07,04,03,07,14.10
2015,07,04,03,08,14.10
2015,07,04,03,09,14.10
2015,07,04,03,10,14.00
2015,07,04,03,11,14.00
2015,07,04,03,12,14.00
2015,07,04,03,13,14.00
2015,07,04,03,14,14.00
2015,07,04,03,15,14.00
2015,07,04,03,16,14.00
2015,07,04,03,17,14.00
2015,07,04,03,18,14.00
2015,07,04,03,19,14.00
2015,07,04,03,20,14.00
2015,07,04,03,21,14.00
2015,07,04,03,22,14.00
2015,07,04,03,23,14.00
2015,07,04,03,24,14.00
2015,07,04,03,25,14.00
2015,07,04,03,26,14.00
2015,07,04,03,27,14.00
2015,07,04,03,28,14.00
2015,07,04,03,29,14.00
2015,07,04,03,30,14.00
2015,07,04,03,31,14.00
2015,07,04,03,32,14.00
2015,07,04,03,33,14.00
2015,07,04,03,34,14.10
2015,07,04,03,35,14.10
2015,07,04,03,36,14.10
2015,07,04,03,37,14.20
2015,07,04,03,38,14.20
2015,07,04,03,39,14.30
2015,07,04,03,40,14.30
2015,07,04,03,41,14.30
2015,07,04,03,42,14.30
2015,07,04,03,43,14.40
2015,07,04,03,44,14.40
2015,07,04,03,45,14.50
2015,07,04,03,46,14.50
2015,07,04,03,47,14.50
2015,07,04,03,48,14.60
2015,07,04,03,49,14.60
2015,07,04,03,50,14.60
2015,07,04,03,51,14.60
2015,07,04,03,52,14.60
2015,07,04,03,53,14.60
2015,07,04,03,54,14.60
2015,07,04,03,55,14.70
2015,07,04,03,56,14.70
2015,07,04,03,57,14.70
2015,07,04,03,58,14.70
2015,07,04,03,59,14.70
2015,07,04,04,00,14.70
2015,07,04,04,01,14.70
2015,07,04,04,02,14.70
2015,07,04,04,03,14.70
2015,07,04,04,04,14.70
2015,07,04,04,05,14.70
2015,07,04,04,06,14.80
2015,07,04,04,07,14.80
2015,07,04,04,08,14.80
2015,07,04,04,09,14.80
2015,07,04,04,10,14.90
2015,07,04,04,11,14.90
2015,07,04,04,12,14.90
2015,07,04,04,13,14.80
2015,07,04,04,14,14.80
2015,07,04,04,15,14.80
2015,07,04,04,16,14.80
2015,07,04,04,17,14.70
2015,07,04,04,18,14.70
2015,07,04,04,19,14.60
2015,07,04,04,20,14.60
2015,07,04,04,21,14.50
2015,07,04,04,22,14.30
2015,07,04,04,23,14.20
2015,07,04,04,24,14.10
2015,07,04,04,25,14.10
2015,07,04,04,26,14.00
2015,07,04,04,27,13.90
2015,07,04,04,28,13.90
2015,07,04,04,29,13.80
2015,07,04,04,30,13.70
2015,07,04,04,31,13.70
2015,07,04,04,32,13.70
2015,07,04,04,33,13.70
2015,07,04,04,34,13.70
2015,07,04,04,35,13.70
2015,07,04,04,36,13.70
2015,07,04,04,37,13.70
2015,07,04,04,38,13.70
2015,07,04,04,39,13.70
2015,07,04,04,40,13.70
2015,07,04,04,41,13.70
2015,07,04,04,42,13.70
2015,07,04,04,43,13.70
2015,07,04,04,44,13.70
2015,07,04,04,45,13.70
2015,07,04,04,46,13.70
2015,07,04,04,47,13.70
2015,07,04,04,48,13.70
2015,07,04,04,49,13.70
2015,07,04,04,50,13.70
2015,07,04,04,51,13.70
2015,07,04,04,52,13.70
2015,07,04,04,53,13.70
2015,07,04,04,54,13.70
2015,07,04,04,55,13.70
2015,07,04,04,56,13.70
2015,07,04,04,57,13.70
2015,07,04,04,58,13.70
2015,07,04,04,59,13.70
2015,07,04,05,00,13.70
2015,07,04,05,01,13.70
2015,07,04,05,02,13.70
2015,07,04,05,03,13.70
2015,07,04,05,04,13.80
2015,07,04,05,05,13.80
2015,07,04,05,06,13.80
2015,07,04,05,07,13.90
2015,07,04,05,08,13.90
2015,07,04,05,09,13.90
2015,07,04,05,10,14.00
2015,07,04,05,11,14.00
2015,07,04,05,12,14.00
2015,07,04,05,13,14.00
2015,07,04,05,14,14.00
2015,07,04,05,15,14.00
2015,07,04,05,16,14.00
2015,07,04,05,17,14.00
2015,07,04,05,18,14.00
2015,07,04,05,19,13.90
2015,07,04,05,20,13.90
2015,07,04,05,21,13.80
2015,07,04,05,22,13.80
2015,07,04,05,23,13.80
2015,07,04,05,24,13.70
2015,07,04,05,25,13.70
2015,07,04,05,26,13.70
2015,07,04,05,27,13.70
2015,07,04,05,28,13.60
2015,07,04,05,29,13.70
2015,07,04,05,30,13.70
2015,07,04,05,31,13.70
2015,07,04,05,32,13.70
2015,07,04,05,33,13.70
2015,07,04,05,34,13.70
2015,07,04,05,35,13.70
2015,07,04,05,36,13.70
2015,07,04,05,37,13.70
2015,07,04,05,38,13.70
2015,07,04,05,39,13.70
2015,07,04,05,40,13.70
2015,07,04,05,41,13.70
2015,07,04,05,42,13.70
2015,07,04,05,43,13.70
2015,07,04,05,44,13.70
2015,07,04,05,45,13.70
2015,07,04,05,46,13.70
2015,07,04,05,47,13.70
2015,07,04,05,48,13.70
2015,07,04,05,49,13.70
2015,07,04,05,50,13.70
2015,07,04,05,51,13.80
2015,07,04,05,52,13.80
2015,07,04,05,53,13.80
2015,07,04,05,54,13.80
2015,07,04,05,55,13.90
2015,07,04,05,56,13.90
2015,07,04,05,57,14.00
2015,07,04,05,58,14.00
2015,07,04,05,59,14.00
2015,07,04,06,00,14.00
2015,07,04,06,01,14.00
2015,07,04,06,02,14.00
2015,07,04,06,03,14.00
2015,07,04,06,04,14.00
2015,07,04,06,05,14.00
2015,07,04,06,06,14.00
2015,07,04,06,07,14.00
2015,07,04,06,08,14.00
2015,07,04,06,09,14.00
2015,07,04,06,10,14.00
2015,07,04,06,11,14.00
2015,07,04,06,12,14.10
2015,07,04,06,13,14.10
2015,07,04,06,14,14.10
2015,07,04,06,15,14.20
2015,07,04,06,16,14.20
2015,07,04,06,17,14.20
2015,07,04,06,18,14.30
2015,07,04,06,19,14.40
2015,07,04,06,20,14.40
2015,07,04,06,21,14.50
2015,07,04,06,22,14.50
2015,07,04,06,23,14.50
2015,07,04,06,24,14.50
2015,07,04,06,25,14.50
2015,07,04,06,26,14.50
2015,07,04,06,27,14.40
2015,07,04,06,28,14.40
2015,07,04,06,29,14.50
2015,07,04,06,30,14.50
2015,07,04,06,31,14.50
2015,07,04,06,32,14.60
2015,07,04,06,33,14.60
2015,07,04,06,34,14.70
2015,07,04,06,35,14.70
2015,07,04,06,36,14.70
2015,07,04,06,37,14.80
2015,07,04,06,38,14.80
2015,07,04,06,39,14.80
2015,07,04,06,40,14.80
2015,07,04,06,41,14.80
2015,07,04,06,42,14.80
2015,07,04,06,43,14.80
2015,07,04,06,44,14.80
2015,07,04,06,45,14.80
2015,07,04,06,46,14.80
2015,07,04,06,47,14.80
2015,07,04,06,48,14.80
2015,07,04,06,49,14.90
2015,07,04,06,50,14.90
2015,07,04,06,51,15.00
2015,07,04,06,52,15.00
2015,07,04,06,53,15.00
2015,07,04,06,54,15.00
2015,07,04,06,55,15.00
2015,07,04,06,56,15.00
2015,07,04,06,57,15.00
2015,07,04,06,58,15.00
2015,07,04,06,59,15.00
2015,07,04,07,00,15.00
2015,07,04,07,01,15.00
2015,07,04,07,02,15.10
2015,07,04,07,03,15.10
2015,07,04,07,04,15.10
2015,07,04,07,05,15.20
2015,07,04,07,06,15.30
2015,07,04,07,07,15.30
2015,07,04,07,08,15.40
2015,07,04,07,09,15.40
2015,07,04,07,10,15.40
2015,07,04,07,11,15.40
2015,07,04,07,12,15.50
2015,07,04,07,13,15.50
2015,07,04,07,14,15.50
2015,07,04,07,15,15.60
2015,07,04,07,16,15.60
2015,07,04,07,17,15.60
2015,07,04,07,18,15.60
2015,07,04,07,19,15.60
2015,07,04,07,20,15.70
2015,07,04,07,21,15.70
2015,07,04,07,22,15.80
2015,07,04,07,23,15.80
2015,07,04,07,24,15.90
2015,07,04,07,25,15.90
2015,07,04,07,26,15.90
2015,07,04,07,27,16.00
2015,07,04,07,28,16.10
2015,07,04,07,29,16.10
2015,07,04,07,30,16.10
2015,07,04,07,31,16.10
2015,07,04,07,32,16.00
2015,07,04,07,33,16.00
2015,07,04,07,34,16.00
2015,07,04,07,35,16.10
2015,07,04,07,36,16.10
2015,07,04,07,37,16.10
2015,07,04,07,38,16.10
2015,07,04,07,39,16.10
2015,07,04,07,40,16.10
2015,07,04,07,41,16.20
2015,07,04,07,42,16.20
2015,07,04,07,43,16.30
2015,07,04,07,44,16.40
2015,07,04,07,45,16.40
2015,07,04,07,46,16.40
2015,07,04,07,47,16.50
2015,07,04,07,48,16.60
2015,07,04,07,49,16.50
2015,07,04,07,50,16.50
2015,07,04,07,51,16.50
2015,07,04,07,52,16.40
2015,07,04,07,53,16.40
2015,07,04,07,54,16.40
2015,07,04,07,55,16.40
2015,07,04,07,56,16.40
2015,07,04,07,57,16.40
2015,07,04,07,58,16.50
2015,07,04,07,59,16.60
2015,07,04,08,00,16.60
2015,07,04,08,01,16.60
2015,07,04,08,02,16.60
2015,07,04,08,03,16.60
2015,07,04,08,04,16.60
2015,07,04,08,05,16.60
2015,07,04,08,06,16.70
2015,07,04,08,07,16.70
2015,07,04,08,08,16.60
2015,07,04,08,09,16.70
2015,07,04,08,10,16.70
2015,07,04,08,11,16.70
2015,07,04,08,12,16.70
2015,07,04,08,13,16.70
2015,07,04,08,14,16.80
2015,07,04,08,15,16.80
2015,07,04,08,16,16.90
2015,07,04,08,17,16.90
2015,07,04,08,18,17.00
2015,07,04,08,19,17.00
2015,07,04,08,20,17.00
2015,07,04,08,21,17.10
2015,07,04,08,22,17.10
2015,07,04,08,23,17.10
2015,07,04,08,24,17.20
2015,07,04,08,25,17.30
2015,07,04,08,26,17.30
2015,07,04,08,27,17.30
2015,07,04,08,28,17.30
2015,07,04,08,29,17.40
2015,07,04,08,30,17.40
2015,07,04,08,31,17.40
2015,07,04,08,32,17.40
2015,07,04,08,33,17.40
2015,07,04,08,34,17.30
2015,07,04,08,35,17.30
2015,07,04,08,36,17.30
2015,07,04,08,37,17.30
2015,07,04,08,38,17.30
2015,07,04,08,39,17.30
2015,07,04,08,40,17.30
2015,07,04,08,41,17.30
2015,07,04,08,42,17.20
2015,07,04,08,43,17.10
2015,07,04,08,44,17.10
2015,07,04,08,45,17.10
2015,07,04,08,46,17.00
2015,07,04,08,47,17.00
2015,07,04,08,48,17.00
2015,07,04,08,49,17.00
2015,07,04,08,50,17.00
2015,07,04,08,51,17.00
2015,07,04,08,52,17.00
2015,07,04,08,53,17.00
2015,07,04,08,54,16.90
2015,07,04,08,55,17.00
2015,07,04,08,56,17.00
2015,07,04,08,57,17.00
2015,07,04,08,58,17.10
2015,07,04,08,59,17.10
2015,07,04,09,00,17.10
2015,07,04,09,01,17.20
2015,07,04,09,02,17.10
2015,07,04,09,03,17.10
2015,07,04,09,04,17.00
2015,07,04,09,05,17.00
2015,07,04,09,06,16.90
2015,07,04,09,07,16.80
2015,07,04,09,08,16.70
2015,07,04,09,09,16.60
2015,07,04,09,10,16.40
2015,07,04,09,11,16.40
2015,07,04,09,12,16.30
2015,07,04,09,13,16.20
2015,07,04,09,14,16.10
2015,07,04,09,15,16.10
2015,07,04,09,16,16.10
2015,07,04,09,17,16.10
2015,07,04,09,18,16.10
2015,07,04,09,19,16.20
2015,07,04,09,20,16.30
2015,07,04,09,21,16.40
2015,07,04,09,22,16.40
2015,07,04,09,23,16.50
2015,07,04,09,24,16.60
2015,07,04,09,25,16.70
2015,07,04,09,26,16.70
2015,07,04,09,27,16.70
2015,07,04,09,28,16.80
2015,07,04,09,29,16.90
2015,07,04,09,30,17.00
2015,07,04,09,31,17.00
2015,07,04,09,32,17.20
2015,07,04,09,33,17.30
2015,07,04,09,34,17.40
2015,07,04,09,35,17.50
2015,07,04,09,36,17.50
2015,07,04,09,37,17.60
2015,07,04,09,38,17.60
2015,07,04,09,39,17.60
2015,07,04,09,40,17.50
2015,07,04,09,41,17.50
2015,07,04,09,42,17.60
2015,07,04,09,43,17.60
2015,07,04,09,44,17.60
2015,07,04,09,45,17.60
2015,07,04,09,46,17.50
2015,07,04,09,47,17.50
2015,07,04,09,48,17.40
2015,07,04,09,49,17.40
2015,07,04,09,50,17.40
2015,07,04,09,51,17.50
2015,07,04,09,52,17.60
2015,07,04,09,53,17.60
2015,07,04,09,54,17.70
2015,07,04,09,55,17.80
2015,07,04,09,56,17.90
2015,07,04,09,57,17.90
2015,07,04,09,58,18.00
2015,07,04,09,59,18.10
2015,07,04,10,00,18.20
2015,07,04,10,01,18.20
2015,07,04,10,02,18.30
2015,07,04,10,03,18.50
2015,07,04,10,04,18.60
2015,07,04,10,05,18.70
2015,07,04,10,06,18.90
2015,07,04,10,07,19.00
2015,07,04,10,08,19.10
2015,07,04,10,09,19.30
2015,07,04,10,10,19.40
2015,07,04,10,11,19.50
2015,07,04,10,12,19.60
2015,07,04,10,13,19.60
2015,07,04,10,14,19.80
2015,07,04,10,15,19.90
2015,07,04,10,16,20.10
2015,07,04,10,17,20.20
2015,07,04,10,18,20.20
2015,07,04,10,19,20.30
2015,07,04,10,20,20.40
2015,07,04,10,21,20.40
2015,07,04,10,22,20.40
2015,07,04,10,23,20.50
2015,07,04,10,24,20.60
2015,07,04,10,25,20.60
2015,07,04,10,26,20.50
2015,07,04,10,27,20.60
2015,07,04,10,28,20.70
2015,07,04,10,29,20.60
2015,07,04,10,30,20.60
2015,07,04,10,31,20.70
2015,07,04,10,32,20.70
2015,07,04,10,33,20.70
2015,07,04,10,34,20.70
2015,07,04,10,35,20.70
2015,07,04,10,36,20.70
2015,07,04,10,37,20.70
2015,07,04,10,38,20.70
2015,07,04,10,39,20.70
2015,07,04,10,40,20.70
2015,07,04,10,41,20.70
2015,07,04,10,42,20.60
2015,07,04,10,43,20.50
2015,07,04,10,44,20.50
2015,07,04,10,45,20.50
2015,07,04,10,46,20.50
2015,07,04,10,47,20.40
2015,07,04,10,48,20.40
2015,07,04,10,49,20.40
2015,07,04,10,50,20.40
2015,07,04,10,51,20.40
2015,07,04,10,52,20.50
2015,07,04,10,53,20.60
2015,07,04,10,54,20.60
2015,07,04,10,55,20.60
2015,07,04,10,56,20.60
2015,07,04,10,57,20.60
2015,07,04,10,58,20.50
2015,07,04,10,59,20.50
2015,07,04,11,00,20.60
2015,07,04,11,01,20.50
2015,07,04,11,02,20.50
2015,07,04,11,03,20.50
2015,07,04,11,04,20.40
2015,07,04,11,05,20.40
2015,07,04,11,06,20.40
2015,07,04,11,07,20.40
2015,07,04,11,08,20.50
2015,07,04,11,09,20.40
2015,07,04,11,10,20.40
2015,07,04,11,11,20.50
2015,07,04,11,12,20.50
2015,07,04,11,13,20.50
2015,07,04,11,14,20.40
2015,07,04,11,15,20.40
2015,07,04,11,16,20.50
2015,07,04,11,17,20.40
2015,07,04,11,18,20.40
2015,07,04,11,19,20.50
2015,07,04,11,20,20.50
2015,07,04,11,21,20.50
2015,07,04,11,22,20.60
2015,07,04,11,23,20.70
2015,07,04,11,24,20.80
2015,07,04,11,25,20.70
2015,07,04,11,26,20.60
2015,07,04,11,27,20.40
2015,07,04,11,28,20.20
2015,07,04,11,29,20.10
2015,07,04,11,30,19.90
2015,07,04,11,31,19.80
2015,07,04,11,32,19.70
2015,07,04,11,33,19.70
2015,07,04,11,34,19.70
2015,07,04,11,35,19.60
2015,07,04,11,36,19.60
2015,07,04,11,37,19.60
2015,07,04,11,38,19.60
2015,07,04,11,39,19.50
2015,07,04,11,40,19.50
2015,07,04,11,41,19.40
2015,07,04,11,42,19.30
2015,07,04,11,43,19.20
2015,07,04,11,44,19.10
2015,07,04,11,45,19.10
2015,07,04,11,46,19.00
2015,07,04,11,47,19.00
2015,07,04,11,48,19.10
2015,07,04,11,49,19.10
2015,07,04,11,50,19.00
2015,07,04,11,51,18.90
2015,07,04,11,52,18.90
2015,07,04,11,53,18.80
2015,07,04,11,54,18.80
2015,07,04,11,55,18.80
2015,07,04,11,56,18.80
2015,07,04,11,57,18.90
2015,07,04,11,58,19.00
2015,07,04,11,59,19.10
2015,07,04,12,00,19.40
2015,07,04,12,01,19.60
2015,07,04,12,02,19.70
2015,07,04,12,03,19.80
2015,07,04,12,04,20.00
2015,07,04,12,05,20.20
2015,07,04,12,06,20.30
2015,07,04,12,07,20.40
2015,07,04,12,08,20.60
2015,07,04,12,09,20.70
2015,07,04,12,10,20.70
2015,07,04,12,11,20.80
2015,07,04,12,12,20.90
2015,07,04,12,13,21.00
2015,07,04,12,14,21.10
2015,07,04,12,15,21.10
2015,07,04,12,16,21.10
2015,07,04,12,17,21.10
2015,07,04,12,18,21.10
2015,07,04,12,19,21.10
2015,07,04,12,20,21.00
2015,07,04,12,21,20.80
2015,07,04,12,22,20.70
2015,07,04,12,23,20.60
2015,07,04,12,24,20.60
2015,07,04,12,25,20.60
2015,07,04,12,26,20.70
2015,07,04,12,27,20.70
2015,07,04,12,28,20.60
2015,07,04,12,29,20.50
2015,07,04,12,30,20.50
2015,07,04,12,31,20.60
2015,07,04,12,32,20.60
2015,07,04,12,33,20.60
2015,07,04,12,34,20.50
2015,07,04,12,35,20.60
2015,07,04,12,36,20.60
2015,07,04,12,37,20.70
2015,07,04,12,38,20.80
2015,07,04,12,39,20.90
2015,07,04,12,40,20.90
2015,07,04,12,41,20.80
2015,07,04,12,42,20.70
2015,07,04,12,43,20.70
2015,07,04,12,44,20.60
2015,07,04,12,45,20.60
2015,07,04,12,46,20.70
2015,07,04,12,47,20.80
2015,07,04,12,48,20.90
2015,07,04,12,49,20.90
2015,07,04,12,50,21.00
2015,07,04,12,51,21.10
2015,07,04,12,52,21.30
2015,07,04,12,53,21.40
2015,07,04,12,54,21.40
2015,07,04,12,55,21.40
2015,07,04,12,56,21.40
2015,07,04,12,57,21.40
2015,07,04,12,58,21.30
2015,07,04,12,59,21.30
2015,07,04,13,00,21.30
2015,07,04,13,01,21.20
2015,07,04,13,02,21.10
2015,07,04,13,03,21.00
2015,07,04,13,04,21.00
2015,07,04,13,05,21.00
2015,07,04,13,06,21.00
2015,07,04,13,07,21.10
2015,07,04,13,08,21.10
2015,07,04,13,09,21.10
2015,07,04,13,10,21.10
2015,07,04,13,11,21.10
2015,07,04,13,12,21.10
2015,07,04,13,13,21.10
2015,07,04,13,14,21.10
2015,07,04,13,15,21.10
2015,07,04,13,16,20.90
2015,07,04,13,17,20.50
2015,07,04,13,18,19.90
2015,07,04,13,19,19.30
2015,07,04,13,20,18.80
2015,07,04,13,21,18.40
2015,07,04,13,22,18.10
2015,07,04,13,23,17.90
2015,07,04,13,24,17.90
2015,07,04,13,25,17.90
2015,07,04,13,26,17.90
2015,07,04,13,27,17.90
2015,07,04,13,28,17.90
2015,07,04,13,29,18.00
2015,07,04,13,30,18.10
2015,07,04,13,31,18.20
2015,07,04,13,32,18.20
2015,07,04,13,33,18.20
2015,07,04,13,34,18.10
2015,07,04,13,35,18.10
2015,07,04,13,36,18.00
2015,07,04,13,37,17.90
2015,07,04,13,38,17.80
2015,07,04,13,39,17.70
2015,07,04,13,40,17.80
2015,07,04,13,41,17.70
2015,07,04,13,42,17.80
2015,07,04,13,43,17.80
2015,07,04,13,44,18.00
2015,07,04,13,45,18.20
2015,07,04,13,46,18.30
2015,07,04,13,47,18.30
2015,07,04,13,48,18.40
2015,07,04,13,49,18.50
2015,07,04,13,50,18.50
2015,07,04,13,51,18.50
2015,07,04,13,52,18.50
2015,07,04,13,53,18.60
2015,07,04,13,54,18.60
2015,07,04,13,55,18.60
2015,07,04,13,56,18.80
2015,07,04,13,57,19.00
2015,07,04,13,58,19.20
2015,07,04,13,59,19.30
2015,07,04,14,00,19.40
2015,07,04,14,01,19.40
2015,07,04,14,02,19.50
2015,07,04,14,03,19.70
2015,07,04,14,04,19.90
2015,07,04,14,05,19.90
2015,07,04,14,06,20.10
2015,07,04,14,07,20.20
2015,07,04,14,08,20.40
2015,07,04,14,09,20.50
2015,07,04,14,10,20.50
2015,07,04,14,11,20.50
2015,07,04,14,12,20.60
2015,07,04,14,13,20.60
2015,07,04,14,14,20.60
2015,07,04,14,15,20.60
2015,07,04,14,16,20.60
2015,07,04,14,17,20.60
2015,07,04,14,18,20.60
2015,07,04,14,19,20.70
2015,07,04,14,20,20.70
2015,07,04,14,21,20.70
2015,07,04,14,22,20.70
2015,07,04,14,23,20.80
2015,07,04,14,24,20.80
2015,07,04,14,25,20.80
2015,07,04,14,26,20.70
2015,07,04,14,27,20.70
2015,07,04,14,28,20.60
2015,07,04,14,29,20.60
2015,07,04,14,30,20.70
2015,07,04,14,31,20.70
2015,07,04,14,32,20.80
2015,07,04,14,33,20.80
2015,07,04,14,34,20.90
2015,07,04,14,35,20.90
2015,07,04,14,36,21.00
2015,07,04,14,37,21.00
2015,07,04,14,38,21.00
2015,07,04,14,39,20.90
2015,07,04,14,40,20.90
2015,07,04,14,41,20.80
2015,07,04,14,42,20.80
2015,07,04,14,43,20.80
2015,07,04,14,44,20.80
2015,07,04,14,45,21.00
2015,07,04,14,46,20.90
2015,07,04,14,47,20.90
2015,07,04,14,48,21.00
2015,07,04,14,49,21.00
2015,07,04,14,50,21.00
2015,07,04,14,51,21.00
2015,07,04,14,52,21.10
2015,07,04,14,53,21.30
2015,07,04,14,54,21.30
2015,07,04,14,55,21.20
2015,07,04,14,56,21.10
2015,07,04,14,57,21.00
2015,07,04,14,58,20.90
2015,07,04,14,59,20.90
2015,07,04,15,00,20.90
2015,07,04,15,01,20.90
2015,07,04,15,02,20.90
2015,07,04,15,03,21.00
2015,07,04,15,04,21.00
2015,07,04,15,05,21.00
2015,07,04,15,06,21.00
2015,07,04,15,07,21.10
2015,07,04,15,08,21.10
2015,07,04,15,09,21.10
2015,07,04,15,10,21.20
2015,07,04,15,11,21.20
2015,07,04,15,12,21.30
2015,07,04,15,13,21.30
2015,07,04,15,14,21.30
2015,07,04,15,15,21.40
2015,07,04,15,16,21.40
2015,07,04,15,17,21.40
2015,07,04,15,18,21.40
2015,07,04,15,19,21.30
2015,07,04,15,20,21.30
2015,07,04,15,21,21.30
2015,07,04,15,22,21.30
2015,07,04,15,23,21.30
2015,07,04,15,24,21.30
2015,07,04,15,25,21.30
2015,07,04,15,26,21.50
2015,07,04,15,27,21.60
2015,07,04,15,28,21.60
2015,07,04,15,29,21.60
2015,07,04,15,30,21.60
2015,07,04,15,31,21.60
2015,07,04,15,32,21.70
2015,07,04,15,33,21.80
2015,07,04,15,34,21.90
2015,07,04,15,35,21.90
2015,07,04,15,36,22.00
2015,07,04,15,37,22.00
2015,07,04,15,38,22.00
2015,07,04,15,39,22.00
2015,07,04,15,40,21.90
2015,07,04,15,41,21.90
2015,07,04,15,42,21.90
2015,07,04,15,43,21.90
2015,07,04,15,44,21.80
2015,07,04,15,45,21.80
2015,07,04,15,46,21.70
2015,07,04,15,47,21.60
2015,07,04,15,48,21.50
2015,07,04,15,49,21.40
2015,07,04,15,50,21.30
2015,07,04,15,51,21.10
2015,07,04,15,52,21.00
2015,07,04,15,53,21.00
2015,07,04,15,54,21.00
2015,07,04,15,55,21.00
2015,07,04,15,56,21.00
2015,07,04,15,57,21.10
2015,07,04,15,58,21.10
2015,07,04,15,59,21.10
2015,07,04,16,00,21.10
2015,07,04,16,01,21.10
2015,07,04,16,02,21.20
2015,07,04,16,03,21.30
2015,07,04,16,04,21.50
2015,07,04,16,05,21.60
2015,07,04,16,06,21.60
2015,07,04,16,07,21.70
2015,07,04,16,08,21.70
2015,07,04,16,09,21.80
2015,07,04,16,10,21.80
2015,07,04,16,11,22.00
2015,07,04,16,12,22.00
2015,07,04,16,13,22.00
2015,07,04,16,14,21.90
2015,07,04,16,15,21.80
2015,07,04,16,16,21.70
2015,07,04,16,17,21.70
2015,07,04,16,18,21.70
2015,07,04,16,19,21.70
2015,07,04,16,20,21.60
2015,07,04,16,21,21.50
2015,07,04,16,22,21.40
2015,07,04,16,23,21.30
2015,07,04,16,24,21.20
2015,07,04,16,25,21.10
2015,07,04,16,26,20.90
2015,07,04,16,27,20.70
2015,07,04,16,28,20.50
2015,07,04,16,29,20.40
2015,07,04,16,30,20.40
2015,07,04,16,31,20.40
2015,07,04,16,32,20.20
2015,07,04,16,33,20.10
2015,07,04,16,34,19.80
2015,07,04,16,35,19.70
2015,07,04,16,36,19.70
2015,07,04,16,37,19.90
2015,07,04,16,38,20.00
2015,07,04,16,39,20.20
2015,07,04,16,40,20.30
2015,07,04,16,41,20.40
2015,07,04,16,42,20.30
2015,07,04,16,43,20.20
2015,07,04,16,44,20.20
2015,07,04,16,45,20.00
2015,07,04,16,46,19.90
2015,07,04,16,47,19.80
2015,07,04,16,48,19.70
2015,07,04,16,49,19.50
2015,07,04,16,50,19.30
2015,07,04,16,51,19.10
2015,07,04,16,52,19.00
2015,07,04,16,53,18.90
2015,07,04,16,54,18.80
2015,07,04,16,55,18.70
2015,07,04,16,56,18.70
2015,07,04,16,57,18.70
2015,07,04,16,58,18.70
2015,07,04,16,59,18.70
2015,07,04,17,00,18.70
2015,07,04,17,01,18.80
2015,07,04,17,02,18.90
2015,07,04,17,03,18.90
2015,07,04,17,04,19.00
2015,07,04,17,05,19.10
2015,07,04,17,06,19.10
2015,07,04,17,07,19.10
2015,07,04,17,08,19.10
2015,07,04,17,09,19.10
2015,07,04,17,10,19.10
2015,07,04,17,11,19.10
2015,07,04,17,12,19.10
2015,07,04,17,13,19.00
2015,07,04,17,14,18.90
2015,07,04,17,15,18.80
2015,07,04,17,16,18.80
2015,07,04,17,17,18.90
2015,07,04,17,18,18.90
2015,07,04,17,19,18.90